Кизыл-Су

Turkmenistan     39˚48′00″N   53˚01′01″E
temp.,
°C
wind,
m/s
gust,
m/s
humid.,
%
clouds,
%
prec.,
mm/h
press.,
hPa
HPBL,
m
27 november, fri
fri2723:00+10˚ne6670100 0.3 1020458
02:00+9˚n8775100 0.8 1020439
05:00+8˚n101180100 2.3 1022654
08:00+7˚nne9980100 1.3 1025606
11:00+9˚nne6861100 1.7 10281103
14:00+9˚n565864 0.0 1030846
17:00+9˚nw666954 0.1 1031876
20:00+10˚nnw546136 0.0 10341007
28 november, sat
sat2823:00+10˚n225848 0.0 1035898
02:00+9˚e436666 0.0 1036680
05:00+9˚e657151 0.0 1035465
08:00+9˚ese77719 0.0 1036564
11:00+9˚ese77714 0.0 1036584
14:00+9˚e566236 0.0 1034651
17:00+10˚nne345642 0.0 1033443
20:00+10˚ene6662100 0.0 1032447
29 november, sun
sun2923:00+10˚e4361100 0.0 1032397
02:00+9˚ene446499 0.0 1030333
05:00+9˚e436295 0.0 1029333
08:00+9˚ene546462 0.0 1029328
11:00+9˚e336074 0.0 1029362
14:00+10˚n2257100 0.0 1027290
17:00+11˚wnw1151100 0.0 1026288
20:00+11˚e1150100 0.0 1026556
30 november, mon
mon3023:00+10˚ene6554100 0.0 1025405
02:00+8˚e4368100 0.8 1024378
05:00+7˚e3391100 6.4 1024303
08:00+7˚ese5590100 4.0 1024393
11:00+7˚e5588100 6.0 1025433
14:00+7˚ese7786100 0.8 1024503
17:00+7˚ese6784100 0.8 1024582
20:00+7˚ese6681100 0.1 1025608
1 december, tue
tue123:00+7˚ese7783100 0.4 1025529
02:00+7˚se888485 0.0 1025475
05:00+7˚ese778387 0.1 1024477
08:00+8˚se998585 0.0 1025445
11:00+8˚se9108693 0.0 1026424
14:00+9˚se8880100 0.0 1025437
17:00+10˚se6674100 0.0 1025469
20:00+10˚se787587 0.0 1025357